| time (UTC) | temp C | wind direction | speed KPH | gust KPH | rain 1hr cm | rain 24hr cm | rain mn cm | humidity % | barometer mb |
| 20260507060503 | 23 | 297 | 8.0 | 16.1 | 0.00 | 0.00 | 0.00 | 43 | 1011.9 |
| 20260507060003 | 23 | 299 | 8.0 | 16.1 | 0.00 | 0.00 | 0.00 | 43 | 1011.9 |
| 20260507055502 | 23 | 296 | 8.0 | 16.1 | 0.00 | 0.00 | 0.00 | 43 | 1011.9 |
| 20260507055003 | 24 | 304 | 8.0 | 16.1 | 0.00 | 0.00 | 0.00 | 42 | 1012.0 |
| 20260507054503 | 24 | 287 | 8.0 | 12.9 | 0.00 | 0.00 | 0.00 | 42 | 1012.0 |
| 20260507053003 | 24 | 295 | 8.0 | 19.3 | 0.00 | 0.00 | 0.00 | 41 | 1011.9 |
| 20260507052503 | 24 | 300 | 9.7 | 16.1 | 0.00 | 0.00 | 0.00 | 40 | 1011.9 |
| 20260507052003 | 25 | 288 | 6.4 | 14.5 | 0.00 | 0.00 | 0.00 | 40 | 1011.9 |
| 20260507051503 | 25 | 293 | 9.7 | 16.1 | 0.00 | 0.00 | 0.00 | 39 | 1011.9 |
| 20260507051003 | 25 | 279 | 6.4 | 9.7 | 0.00 | 0.00 | 0.00 | 39 | 1011.9 |
| 20260507050003 | 24 | 344 | 3.2 | 4.8 | 0.00 | 0.00 | 0.00 | 41 | 1011.9 |
| 20260507045504 | 24 | 1 | 4.8 | 8.0 | 0.00 | 0.00 | 0.00 | 40 | 1011.9 |
| 20260507045003 | 25 | 17 | 4.8 | 8.0 | 0.00 | 0.00 | 0.00 | 38 | 1011.9 |
| 20260507044503 | 25 | 356 | 3.2 | 8.0 | 0.00 | 0.00 | 0.00 | 36 | 1011.9 |
| 20260507044002 | 25 | 46 | 1.6 | 4.8 | 0.00 | 0.00 | 0.00 | 34 | 1011.9 |
| 20260507043503 | 26 | 90 | 1.6 | 4.8 | 0.00 | 0.00 | 0.00 | 32 | 1011.9 |
| 20260507042003 | 25 | 55 | 1.6 | 3.2 | 0.00 | 0.00 | 0.00 | 29 | 1011.8 |
| 20260507041503 | 25 | 46 | 4.8 | 4.8 | 0.00 | 0.00 | 0.00 | 29 | 1011.8 |
| 20260507041002 | 25 | 45 | 4.8 | 8.0 | 0.00 | 0.00 | 0.00 | 28 | 1011.7 |
| 20260507040504 | 25 | 32 | 4.8 | 8.0 | 0.00 | 0.00 | 0.00 | 28 | 1011.6 |
| 20260507040003 | 25 | 22 | 1.6 | 8.0 | 0.00 | 0.00 | 0.00 | 28 | 1011.5 |
| 20260507035003 | 26 | 63 | 3.2 | 8.0 | 0.00 | 0.00 | 0.00 | 28 | 1011.4 |
| 20260507034003 | 26 | 55 | 3.2 | 4.8 | 0.00 | 0.00 | 0.00 | 27 | 1011.3 |
| 20260507033503 | 26 | 53 | 3.2 | 8.0 | 0.00 | 0.00 | 0.00 | 27 | 1011.3 |
| 20260507033004 | 26 | 66 | 8.0 | 12.9 | 0.00 | 0.00 | 0.00 | 27 | 1011.3 |
| 20260507032503 | 26 | 71 | 8.0 | 11.3 | 0.00 | 0.00 | 0.00 | 27 | 1011.2 |
| 20260507032003 | 26 | 66 | 4.8 | 9.7 | 0.00 | 0.00 | 0.00 | 29 | 1011.2 |
| 20260507031503 | 27 | 82 | 9.7 | 14.5 | 0.00 | 0.00 | 0.00 | 26 | 1011.0 |
| 20260507031003 | 27 | 83 | 11.3 | 14.5 | 0.00 | 0.00 | 0.00 | 26 | 1010.9 |
| 20260507030503 | 27 | 86 | 4.8 | 9.7 | 0.00 | 0.00 | 0.00 | 26 | 1010.8 |
| 20260507030004 | 27 | 80 | 3.2 | 11.3 | 0.00 | 0.00 | 0.00 | 26 | 1010.8 |
| 20260507025503 | 27 | 81 | 3.2 | 9.7 | 0.00 | 0.00 | 0.00 | 26 | 1010.8 |
| 20260507025003 | 27 | 93 | 8.0 | 11.3 | 0.00 | 0.00 | 0.00 | 26 | 1010.7 |
| 20260507024503 | 27 | 98 | 3.2 | 8.0 | 0.00 | 0.00 | 0.00 | 25 | 1010.7 |
| 20260507024003 | 27 | 90 | 4.8 | 9.7 | 0.00 | 0.00 | 0.00 | 25 | 1010.5 |
| 20260507023503 | 28 | 95 | 9.7 | 12.9 | 0.00 | 0.00 | 0.00 | 25 | 1010.4 |
| 20260507023003 | 28 | 84 | 8.0 | 12.9 | 0.00 | 0.00 | 0.00 | 25 | 1010.3 |
| 20260507022503 | 28 | 81 | 8.0 | 12.9 | 0.00 | 0.00 | 0.00 | 25 | 1010.3 |
| 20260507022003 | 28 | 89 | 8.0 | 14.5 | 0.00 | 0.00 | 0.00 | 24 | 1010.3 |
| 20260507020502 | 29 | 116 | 11.3 | 16.1 | 0.00 | 0.00 | 0.00 | 24 | 1010.2 |
| 20260507020003 | 29 | 115 | 9.7 | 16.1 | 0.00 | 0.00 | 0.00 | 24 | 1010.1 |
| 20260507015503 | 29 | 102 | 11.3 | 16.1 | 0.00 | 0.00 | 0.00 | 23 | 1010.0 |
| 20260507015002 | 30 | 106 | 11.3 | 14.5 | 0.00 | 0.00 | 0.00 | 23 | 1009.9 |
| 20260507014002 | 30 | 113 | 9.7 | 16.1 | 0.00 | 0.00 | 0.00 | 23 | 1009.9 |
| 20260507013503 | 30 | 125 | 9.7 | 16.1 | 0.00 | 0.00 | 0.00 | 22 | 1009.8 |
| 20260507013004 | 30 | 117 | 9.7 | 19.3 | 0.00 | 0.00 | 0.00 | 22 | 1009.8 |
| 20260507012503 | 30 | 129 | 11.3 | 19.3 | 0.00 | 0.00 | 0.00 | 22 | 1009.8 |
| 20260507011502 | 31 | 119 | 9.7 | 19.3 | 0.00 | 0.00 | 0.00 | 21 | 1009.9 |
| 20260507011002 | 31 | 112 | 12.9 | 19.3 | 0.00 | 0.00 | 0.00 | 21 | 1010.0 |
| 20260507010504 | 31 | 111 | 8.0 | 12.9 | 0.00 | 0.00 | 0.00 | 21 | 1010.0 |
| 20260507010003 | 31 | 113 | 11.3 | 16.1 | 0.00 | 0.00 | 0.00 | 21 | 1010.0 |
| 20260507005503 | 31 | 122 | 8.0 | 19.3 | 0.00 | 0.00 | 0.00 | 21 | 1009.9 |
| 20260507005003 | 31 | 99 | 9.7 | 16.1 | 0.00 | 0.00 | 0.00 | 20 | 1009.9 |
| 20260507004503 | 31 | 95 | 11.3 | 19.3 | 0.00 | 0.00 | 0.00 | 21 | 1009.9 |
| 20260507004003 | 31 | 77 | 9.7 | 19.3 | 0.00 | 0.00 | 0.00 | 21 | 1009.9 |
| 20260507003503 | 31 | 118 | 11.3 | 14.5 | 0.00 | 0.00 | 0.00 | 20 | 1009.9 |
| 20260507003003 | 32 | 100 | 9.7 | 19.3 | 0.00 | 0.00 | 0.00 | 21 | 1009.8 |
| 20260507002003 | 32 | 86 | 8.0 | 12.9 | 0.00 | 0.00 | 0.00 | 21 | 1009.8 |
| 20260507001503 | 32 | 94 | 4.8 | 11.3 | 0.00 | 0.00 | 0.00 | 20 | 1009.8 |
| 20260507001003 | 31 | 75 | 9.7 | 19.3 | 0.00 | 0.00 | 0.00 | 20 | 1009.8 |
| 20260507000503 | 31 | 140 | 8.0 | 19.3 | 0.00 | 0.00 | 0.00 | 21 | 1009.8 |
| 20260507000003 | 31 | 131 | 6.4 | 14.5 | 0.00 | 0.00 | 0.00 | 21 | 1009.8 |
| 20260506235503 | 31 | 165 | 3.2 | 8.0 | 0.00 | 0.00 | 0.00 | 20 | 1009.8 |
| 20260506235003 | 31 | 162 | 4.8 | 14.5 | 0.00 | 0.00 | 0.00 | 20 | 1009.8 |
| 20260506234503 | 31 | 116 | 8.0 | 14.5 | 0.00 | 0.00 | 0.00 | 20 | 1009.8 |
| 20260506234003 | 31 | 99 | 9.7 | 14.5 | 0.00 | 0.00 | 0.00 | 21 | 1009.8 |
| 20260506233502 | 32 | 147 | 4.8 | 12.9 | 0.00 | 0.00 | 0.00 | 20 | 1009.8 |
| 20260506233003 | 32 | 102 | 3.2 | 12.9 | 0.00 | 0.00 | 0.00 | 20 | 1009.8 |
| 20260506232003 | 31 | 159 | 4.8 | 12.9 | 0.00 | 0.00 | 0.00 | 20 | 1009.9 |
| 20260506231503 | 31 | 107 | 8.0 | 14.5 | 0.00 | 0.00 | 0.00 | 20 | 1009.9 |
| 20260506231003 | 31 | 6 | 4.8 | 16.1 | 0.00 | 0.00 | 0.00 | 21 | 1009.9 |
| 20260506230503 | 31 | 223 | 3.2 | 8.0 | 0.00 | 0.00 | 0.00 | 20 | 1010.0 |
| 20260506225504 | 31 | 111 | 6.4 | 12.9 | 0.00 | 0.00 | 0.00 | 20 | 1010.2 |
| 20260506225003 | 31 | 58 | 8.0 | 14.5 | 0.00 | 0.00 | 0.00 | 20 | 1010.3 |
| 20260506224503 | 31 | 103 | 8.0 | 19.3 | 0.00 | 0.00 | 0.00 | 20 | 1010.3 |
| 20260506224003 | 31 | 112 | 11.3 | 19.3 | 0.00 | 0.00 | 0.00 | 21 | 1010.3 |
| 20260506223503 | 31 | 112 | 4.8 | 14.5 | 0.00 | 0.00 | 0.00 | 21 | 1010.3 |
| 20260506223003 | 31 | 76 | 4.8 | 12.9 | 0.00 | 0.00 | 0.00 | 20 | 1010.4 |
| 20260506222004 | 31 | 100 | 8.0 | 12.9 | 0.00 | 0.00 | 0.00 | 20 | 1010.5 |
| 20260506221504 | 31 | 158 | 6.4 | 12.9 | 0.00 | 0.00 | 0.00 | 20 | 1010.6 |
| 20260506221003 | 31 | 18 | 3.2 | 9.7 | 0.00 | 0.00 | 0.00 | 21 | 1010.8 |
| 20260506220502 | 30 | 72 | 3.2 | 11.3 | 0.00 | 0.00 | 0.00 | 22 | 1010.9 |
| 20260506220004 | 30 | 156 | 3.2 | 14.5 | 0.00 | 0.00 | 0.00 | 21 | 1010.9 |
| 20260506215503 | 30 | 150 | 9.7 | 16.1 | 0.00 | 0.00 | 0.00 | 19 | 1011.0 |
| 20260506215003 | 30 | 100 | 9.7 | 14.5 | 0.00 | 0.00 | 0.00 | 20 | 1011.1 |
| 20260506214503 | 30 | 163 | 1.6 | 11.3 | 0.00 | 0.00 | 0.00 | 20 | 1011.2 |
| 20260506214002 | 30 | 133 | 9.7 | 20.9 | 0.00 | 0.00 | 0.00 | 20 | 1011.3 |
| 20260506213503 | 30 | 40 | 3.2 | 11.3 | 0.00 | 0.00 | 0.00 | 19 | 1011.4 |
| 20260506213003 | 31 | 38 | 4.8 | 9.7 | 0.00 | 0.00 | 0.00 | 20 | 1011.4 |
| 20260506212503 | 30 | 40 | 4.8 | 16.1 | 0.00 | 0.00 | 0.00 | 21 | 1011.4 |
| 20260506211503 | 30 | 55 | 3.2 | 8.0 | 0.00 | 0.00 | 0.00 | 22 | 1011.5 |
| 20260506211003 | 30 | 94 | 6.4 | 14.5 | 0.00 | 0.00 | 0.00 | 21 | 1011.7 |
| 20260506210503 | 29 | 134 | 4.8 | 8.0 | 0.00 | 0.00 | 0.00 | 24 | 1011.8 |
| 20260506210003 | 29 | 63 | 3.2 | 11.3 | 0.00 | 0.00 | 0.00 | 23 | 1011.9 |
| 20260506205504 | 29 | 84 | 9.7 | 14.5 | 0.00 | 0.00 | 0.00 | 22 | 1011.9 |
| 20260506205003 | 30 | 81 | 8.0 | 14.5 | 0.00 | 0.00 | 0.00 | 23 | 1011.9 |
| 20260506204503 | 30 | 127 | 4.8 | 14.5 | 0.00 | 0.00 | 0.00 | 22 | 1012.0 |
| 20260506204003 | 30 | 82 | 8.0 | 14.5 | 0.00 | 0.00 | 0.00 | 22 | 1012.0 |
| 20260506203004 | 29 | 112 | 9.7 | 12.9 | 0.00 | 0.00 | 0.00 | 25 | 1012.2 |
| 20260506202503 | 28 | 66 | 4.8 | 12.9 | 0.00 | 0.00 | 0.00 | 23 | 1012.3 |
| 20260506202003 | 29 | 107 | 4.8 | 12.9 | 0.00 | 0.00 | 0.00 | 23 | 1012.4 |
| 20260506201502 | 28 | 277 | 1.6 | 8.0 | 0.00 | 0.00 | 0.00 | 26 | 1012.4 |
| 20260506201003 | 28 | 205 | 4.8 | 9.7 | 0.00 | 0.00 | 0.00 | 25 | 1012.5 |
| 20260506200503 | 28 | 141 | 4.8 | 11.3 | 0.00 | 0.00 | 0.00 | 25 | 1012.5 |
| 20260506200003 | 28 | 122 | 4.8 | 12.9 | 0.00 | 0.00 | 0.00 | 25 | 1012.5 |
| 20260506195503 | 28 | 164 | 4.8 | 12.9 | 0.00 | 0.00 | 0.00 | 25 | 1012.6 |
| 20260506195004 | 28 | 127 | 3.2 | 11.3 | 0.00 | 0.00 | 0.00 | 24 | 1012.8 |
| 20260506194503 | 28 | 21 | 4.8 | 8.0 | 0.00 | 0.00 | 0.00 | 26 | 1012.9 |
| 20260506194003 | 28 | 109 | 3.2 | 4.8 | 0.00 | 0.00 | 0.00 | 25 | 1013.0 |
| 20260506193503 | 28 | 119 | 3.2 | 9.7 | 0.00 | 0.00 | 0.00 | 25 | 1013.0 |
| 20260506193004 | 28 | 94 | 4.8 | 11.3 | 0.00 | 0.00 | 0.00 | 25 | 1013.0 |
| 20260506192503 | 27 | 47 | 3.2 | 8.0 | 0.00 | 0.00 | 0.00 | 27 | 1013.1 |
| 20260506192003 | 27 | 117 | 4.8 | 11.3 | 0.00 | 0.00 | 0.00 | 26 | 1013.2 |
| 20260506191503 | 27 | 164 | 4.8 | 11.3 | 0.00 | 0.00 | 0.00 | 27 | 1013.2 |
| 20260506191003 | 27 | 116 | 4.8 | 11.3 | 0.00 | 0.00 | 0.00 | 26 | 1013.2 |
| 20260506190503 | 26 | 286 | 3.2 | 4.8 | 0.00 | 0.00 | 0.00 | 30 | 1013.4 |
| 20260506190004 | 26 | 279 | 1.6 | 9.7 | 0.00 | 0.00 | 0.00 | 27 | 1013.5 |
| 20260506185003 | 26 | 230 | 3.2 | 4.8 | 0.00 | 0.00 | 0.00 | 28 | 1013.5 |
| 20260506184503 | 26 | 166 | 3.2 | 8.0 | 0.00 | 0.00 | 0.00 | 28 | 1013.5 |
| 20260506184003 | 26 | 208 | 8.0 | 11.3 | 0.00 | 0.00 | 0.00 | 28 | 1013.6 |
| 20260506183503 | 26 | 73 | 3.2 | 8.0 | 0.00 | 0.00 | 0.00 | 28 | 1013.8 |
| 20260506182503 | 26 | 267 | 3.2 | 4.8 | 0.00 | 0.00 | 0.00 | 29 | 1013.9 |
| 20260506182003 | 26 | 101 | 1.6 | 8.0 | 0.00 | 0.00 | 0.00 | 30 | 1014.0 |
| 20260506181003 | 26 | 292 | 1.6 | 4.8 | 0.00 | 0.00 | 0.00 | 32 | 1014.0 |
| 20260506180503 | 25 | 325 | 1.6 | 8.0 | 0.00 | 0.00 | 0.00 | 29 | 1014.0 |
| 20260506180005 | 25 | 287 | 3.2 | 8.0 | 0.00 | 0.00 | 0.00 | 32 | 1014.0 |
| 20260506175003 | 25 | 221 | 8.0 | 12.9 | 0.00 | 0.00 | 0.00 | 29 | 1014.0 |
| 20260506174503 | 25 | 269 | 3.2 | 9.7 | 0.00 | 0.00 | 0.00 | 32 | 1014.0 |
| 20260506174004 | 25 | 260 | 4.8 | 14.5 | 0.00 | 0.00 | 0.00 | 30 | 1014.0 |
| 20260506173503 | 25 | 224 | 4.8 | 14.5 | 0.00 | 0.00 | 0.00 | 32 | 1014.0 |
| 20260506173003 | 25 | 268 | 6.4 | 12.9 | 0.00 | 0.00 | 0.00 | 31 | 1014.0 |
| 20260506172003 | 25 | 273 | 3.2 | 9.7 | 0.00 | 0.00 | 0.00 | 33 | 1014.0 |
| 20260506171503 | 24 | 289 | 9.7 | 16.1 | 0.00 | 0.00 | 0.00 | 34 | 1014.0 |
| 20260506171003 | 23 | 273 | 1.6 | 4.8 | 0.00 | 0.00 | 0.00 | 34 | 1014.0 |
| 20260506170502 | 24 | 297 | 1.6 | 8.0 | 0.00 | 0.00 | 0.00 | 35 | 1014.0 |
| 20260506170003 | 23 | 294 | 3.2 | 4.8 | 0.00 | 0.00 | 0.00 | 35 | 1014.0 |
| 20260506165503 | 23 | 268 | 0.0 | 8.0 | 0.00 | 0.00 | 0.00 | 35 | 1014.0 |
| 20260506165003 | 23 | 281 | 4.8 | 8.0 | 0.00 | 0.00 | 0.00 | 35 | 1014.0 |
| 20260506164504 | 22 | 247 | 3.2 | 8.0 | 0.00 | 0.00 | 0.00 | 36 | 1014.0 |
| 20260506164004 | 22 | 314 | 1.6 | 11.3 | 0.00 | 0.00 | 0.00 | 36 | 1014.1 |
| 20260506163503 | 22 | 349 | 1.6 | 9.7 | 0.00 | 0.00 | 0.00 | 37 | 1014.0 |
| 20260506163003 | 22 | 263 | 3.2 | 11.3 | 0.00 | 0.00 | 0.00 | 37 | 1014.0 |
| 20260506162503 | 22 | 297 | 4.8 | 14.5 | 0.00 | 0.00 | 0.00 | 37 | 1014.0 |
| 20260506161503 | 22 | 244 | 6.4 | 14.5 | 0.00 | 0.00 | 0.00 | 38 | 1014.0 |
| 20260506161003 | 21 | 286 | 4.8 | 14.5 | 0.00 | 0.00 | 0.00 | 40 | 1014.0 |
| 20260506160503 | 21 | 269 | 8.0 | 19.3 | 0.00 | 0.00 | 0.00 | 38 | 1014.0 |
| 20260506160003 | 21 | 291 | 8.0 | 19.3 | 0.00 | 0.00 | 0.00 | 38 | 1013.9 |
| 20260506155503 | 21 | 296 | 9.7 | 19.3 | 0.00 | 0.00 | 0.00 | 39 | 1013.8 |
| 20260506155003 | 21 | 303 | 11.3 | 19.3 | 0.00 | 0.00 | 0.00 | 39 | 1013.8 |
| 20260506154504 | 21 | 292 | 11.3 | 19.3 | 0.00 | 0.00 | 0.00 | 40 | 1013.8 |
| 20260506154003 | 20 | 279 | 11.3 | 20.9 | 0.00 | 0.00 | 0.00 | 41 | 1013.8 |
| 20260506153503 | 20 | 285 | 9.7 | 19.3 | 0.00 | 0.00 | 0.00 | 41 | 1013.9 |
| 20260506153004 | 20 | 279 | 11.3 | 22.5 | 0.00 | 0.00 | 0.00 | 42 | 1013.8 |
| 20260506152503 | 20 | 268 | 12.9 | 25.7 | 0.00 | 0.00 | 0.00 | 42 | 1013.8 |
| 20260506152003 | 19 | 299 | 16.1 | 29.0 | 0.00 | 0.00 | 0.00 | 42 | 1013.7 |
| 20260506151503 | 19 | 281 | 11.3 | 24.1 | 0.00 | 0.00 | 0.00 | 43 | 1013.8 |
| 20260506151003 | 19 | 283 | 16.1 | 29.0 | 0.00 | 0.00 | 0.00 | 43 | 1013.7 |
| 20260506150003 | 18 | 274 | 12.9 | 32.2 | 0.00 | 0.00 | 0.00 | 45 | 1013.7 |
| 20260506145503 | 18 | 279 | 14.5 | 24.1 | 0.00 | 0.00 | 0.00 | 46 | 1013.7 |
| 20260506145004 | 18 | 296 | 14.5 | 25.7 | 0.00 | 0.00 | 0.00 | 46 | 1013.8 |
| 20260506144504 | 18 | 300 | 11.3 | 27.4 | 0.00 | 0.00 | 0.00 | 46 | 1013.7 |
| 20260506144003 | 18 | 273 | 11.3 | 20.9 | 0.00 | 0.00 | 0.00 | 47 | 1013.7 |
| 20260506143503 | 17 | 282 | 16.1 | 29.0 | 0.00 | 0.00 | 0.00 | 47 | 1013.6 |
| 20260506143003 | 17 | 289 | 14.5 | 27.4 | 0.00 | 0.00 | 0.00 | 48 | 1013.6 |
| 20260506142503 | 17 | 276 | 14.5 | 29.0 | 0.00 | 0.00 | 0.00 | 48 | 1013.6 |
| 20260506142003 | 17 | 276 | 12.9 | 32.2 | 0.00 | 0.00 | 0.00 | 49 | 1013.5 |
| 20260506141503 | 17 | 290 | 17.7 | 32.2 | 0.00 | 0.00 | 0.00 | 48 | 1013.5 |
| 20260506141003 | 17 | 294 | 14.5 | 29.0 | 0.00 | 0.00 | 0.00 | 48 | 1013.5 |
| 20260506140503 | 17 | 284 | 16.1 | 33.8 | 0.00 | 0.00 | 0.00 | 49 | 1013.5 |
| 20260506135003 | 16 | 285 | 17.7 | 32.2 | 0.00 | 0.00 | 0.00 | 50 | 1013.2 |
| 20260506134503 | 16 | 284 | 14.5 | 32.2 | 0.00 | 0.00 | 0.00 | 50 | 1013.1 |
| 20260506134003 | 16 | 300 | 17.7 | 33.8 | 0.00 | 0.00 | 0.00 | 50 | 1013.0 |
| 20260506133503 | 16 | 287 | 14.5 | 32.2 | 0.00 | 0.00 | 0.00 | 51 | 1013.0 |
| 20260506133004 | 16 | 267 | 17.7 | 35.4 | 0.00 | 0.00 | 0.00 | 51 | 1013.0 |
| 20260506132503 | 16 | 277 | 16.1 | 32.2 | 0.00 | 0.00 | 0.00 | 51 | 1013.0 |
| 20260506132004 | 16 | 271 | 14.5 | 33.8 | 0.00 | 0.00 | 0.00 | 51 | 1013.0 |
| 20260506131503 | 16 | 286 | 17.7 | 32.2 | 0.00 | 0.00 | 0.00 | 52 | 1012.9 |
| 20260506131004 | 16 | 291 | 14.5 | 27.4 | 0.00 | 0.00 | 0.00 | 52 | 1012.7 |
| 20260506130503 | 16 | 292 | 16.1 | 32.2 | 0.00 | 0.00 | 0.00 | 52 | 1012.6 |
| 20260506130004 | 16 | 282 | 19.3 | 35.4 | 0.00 | 0.00 | 0.00 | 51 | 1012.5 |
| 20260506125503 | 16 | 289 | 19.3 | 37.0 | 0.00 | 0.00 | 0.00 | 51 | 1012.5 |
| 20260506125003 | 16 | 295 | 16.1 | 33.8 | 0.00 | 0.00 | 0.00 | 52 | 1012.5 |
| 20260506124004 | 16 | 291 | 16.1 | 33.8 | 0.00 | 0.00 | 0.00 | 52 | 1012.5 |
| 20260506123503 | 16 | 290 | 16.1 | 27.4 | 0.00 | 0.00 | 0.00 | 52 | 1012.4 |
| 20260506123003 | 16 | 289 | 17.7 | 29.0 | 0.00 | 0.00 | 0.00 | 53 | 1012.4 |
| 20260506122503 | 16 | 291 | 16.1 | 32.2 | 0.00 | 0.00 | 0.00 | 53 | 1012.4 |
| 20260506122003 | 16 | 291 | 16.1 | 27.4 | 0.00 | 0.00 | 0.00 | 53 | 1012.4 |
| 20260506121504 | 16 | 297 | 14.5 | 33.8 | 0.00 | 0.00 | 0.00 | 53 | 1012.4 |
| 20260506120504 | 16 | 301 | 19.3 | 29.0 | 0.00 | 0.00 | 0.00 | 53 | 1012.3 |
| 20260506120003 | 16 | 292 | 17.7 | 35.4 | 0.00 | 0.00 | 0.00 | 53 | 1012.1 |
| 20260506115503 | 16 | 287 | 22.5 | 35.4 | 0.00 | 0.00 | 0.00 | 53 | 1012.1 |
| 20260506115003 | 16 | 279 | 20.9 | 33.8 | 0.00 | 0.00 | 0.00 | 53 | 1012.1 |
| 20260506114503 | 16 | 288 | 20.9 | 35.4 | 0.00 | 0.00 | 0.00 | 53 | 1012.1 |
| 20260506114004 | 16 | 289 | 20.9 | 35.4 | 0.00 | 0.00 | 0.00 | 53 | 1012.0 |
| 20260506113504 | 16 | 283 | 20.9 | 35.4 | 0.00 | 0.00 | 0.00 | 53 | 1012.0 |
| 20260506113003 | 16 | 295 | 19.3 | 35.4 | 0.00 | 0.00 | 0.00 | 53 | 1012.0 |
| 20260506112503 | 16 | 287 | 20.9 | 37.0 | 0.00 | 0.00 | 0.00 | 53 | 1012.0 |
| 20260506112003 | 16 | 285 | 17.7 | 37.0 | 0.00 | 0.00 | 0.00 | 53 | 1012.0 |
| 20260506111502 | 16 | 274 | 19.3 | 37.0 | 0.00 | 0.00 | 0.00 | 53 | 1012.0 |
| 20260506110504 | 16 | 290 | 22.5 | 41.8 | 0.00 | 0.00 | 0.00 | 53 | 1011.9 |
| 20260506110004 | 16 | 296 | 19.3 | 32.2 | 0.00 | 0.00 | 0.00 | 53 | 1012.0 |
| 20260506105503 | 16 | 292 | 16.1 | 41.8 | 0.00 | 0.00 | 0.00 | 53 | 1012.0 |
| 20260506105003 | 16 | 288 | 14.5 | 41.8 | 0.00 | 0.00 | 0.00 | 53 | 1012.0 |
| 20260506104503 | 16 | 303 | 16.1 | 29.0 | 0.00 | 0.00 | 0.00 | 53 | 1012.0 |
| 20260506104003 | 16 | 290 | 17.7 | 37.0 | 0.00 | 0.00 | 0.00 | 53 | 1012.0 |
| 20260506103503 | 16 | 298 | 16.1 | 33.8 | 0.00 | 0.00 | 0.00 | 53 | 1012.0 |
| 20260506102503 | 16 | 297 | 11.3 | 32.2 | 0.00 | 0.00 | 0.00 | 54 | 1012.0 |
| 20260506102004 | 16 | 295 | 12.9 | 32.2 | 0.00 | 0.00 | 0.00 | 53 | 1012.0 |
| 20260506101503 | 16 | 295 | 16.1 | 33.8 | 0.00 | 0.00 | 0.00 | 53 | 1012.0 |
| 20260506101003 | 16 | 292 | 17.7 | 32.2 | 0.00 | 0.00 | 0.00 | 54 | 1011.9 |
| 20260506095503 | 16 | 290 | 17.7 | 32.2 | 0.00 | 0.00 | 0.00 | 53 | 1011.9 |
| 20260506095003 | 16 | 306 | 17.7 | 35.4 | 0.00 | 0.00 | 0.00 | 53 | 1011.9 |
| 20260506094503 | 16 | 291 | 19.3 | 37.0 | 0.00 | 0.00 | 0.00 | 53 | 1011.8 |
| 20260506093503 | 16 | 298 | 14.5 | 27.4 | 0.00 | 0.00 | 0.00 | 53 | 1011.9 |
| 20260506092503 | 17 | 299 | 19.3 | 33.8 | 0.00 | 0.00 | 0.00 | 53 | 1012.0 |
| 20260506092003 | 17 | 300 | 19.3 | 35.4 | 0.00 | 0.00 | 0.00 | 53 | 1012.0 |
| 20260506091503 | 17 | 297 | 19.3 | 35.4 | 0.00 | 0.00 | 0.00 | 53 | 1012.0 |
| 20260506091003 | 17 | 283 | 19.3 | 32.2 | 0.00 | 0.00 | 0.00 | 53 | 1012.0 |
| 20260506090503 | 17 | 295 | 16.1 | 35.4 | 0.00 | 0.00 | 0.00 | 53 | 1012.0 |
| 20260506090003 | 17 | 305 | 19.3 | 32.2 | 0.00 | 0.00 | 0.00 | 53 | 1012.0 |
| 20260506085503 | 17 | 285 | 19.3 | 33.8 | 0.00 | 0.00 | 0.00 | 52 | 1012.0 |
| 20260506084503 | 17 | 293 | 19.3 | 32.2 | 0.00 | 0.00 | 0.00 | 52 | 1012.0 |
| 20260506083504 | 17 | 293 | 16.1 | 37.0 | 0.00 | 0.00 | 0.00 | 51 | 1012.1 |
| 20260506083003 | 17 | 303 | 17.7 | 32.2 | 0.00 | 0.00 | 0.00 | 51 | 1012.1 |
| 20260506082503 | 17 | 300 | 16.1 | 33.8 | 0.00 | 0.00 | 0.00 | 50 | 1012.0 |
| 20260506082003 | 17 | 299 | 17.7 | 33.8 | 0.00 | 0.00 | 0.00 | 50 | 1012.1 |
| 20260506081503 | 17 | 304 | 11.3 | 27.4 | 0.00 | 0.00 | 0.00 | 50 | 1012.1 |
| 20260506080504 | 17 | 294 | 12.9 | 25.7 | 0.00 | 0.00 | 0.00 | 49 | 1012.2 |
| 20260506073503 | 17 | 285 | 12.9 | 25.7 | 0.00 | 0.00 | 0.00 | 49 | 1012.1 |
| 20260506072504 | 17 | 284 | 16.1 | 38.6 | 0.00 | 0.00 | 0.00 | 49 | 1012.0 |
| 20260506071503 | 17 | 302 | 19.3 | 32.2 | 0.00 | 0.00 | 0.00 | 48 | 1012.0 |
| 20260506071004 | 17 | 283 | 16.1 | 32.2 | 0.00 | 0.00 | 0.00 | 48 | 1012.0 |
| 20260506070504 | 17 | 296 | 22.5 | 35.4 | 0.00 | 0.00 | 0.00 | 48 | 1011.9 |
| 20260506062003 | 18 | 285 | 22.5 | 41.8 | 0.00 | 0.00 | 0.00 | 47 | 1011.4 |
| 20260506061503 | 18 | 292 | 19.3 | 38.6 | 0.00 | 0.00 | 0.00 | 47 | 1011.4 |